Home > Weather > Sisimiut > Past weeks

Flag for Greenland Weather for the Past 2 Weeks in Sisimiut, Greenland

Now
10 °F

Frigid.


Feels Like: -10 °F
Forecast: -8 / 3 °F
Wind: 21 mph from Northeast

Location: Attu Kitsissut

Current Time: Feb 12, 2016 at 7:08:48 AM

Latest Report: Feb 12, 2016 at 6:00 AM


Visibility: N/A

Pressure: 29.67 "Hg

Humidity: 89%

Dew point: 7 °F

Location of SisimiutLocation

Historic Weather in Sisimiut — Graph

°F

Sisimiut Temperature Yesterday

Maximum temperature yesterday: 7 °F (at 12:00 PM)
Minimum temperature yesterday: 3 °F (at 12:00 AM)
Average temperature yesterday: 5 °F

High & Low Weather Summary for the Past Weeks

 TemperatureHumidityPressure
High20 °F (Feb 3, 10:00 AM)95% (Feb 4, 9:00 AM)30.10 "Hg (Feb 4, 9:00 AM)
Low-1 °F (Feb 9, 2:00 PM)56% (Feb 2, 8:00 AM)29.06 "Hg (Jan 28, 5:00 PM)
Average10 °F84%29.61 "Hg
* Reported Jan 28 5:00 AM — Feb 12 5:00 AM, Sisimiut, Weather by CustomWeather, © 2016

Note: Actual official high and low records may vary slightly from our data, if they occured in-between our weather recording intervals... More about our weather records

Advertising

Sisimiut Weather History for the Previous 24 Hours

 ConditionsComfort  
Time TempWeatherWind HumidityBarometerVisibility
5:00 AM
Fri, Feb 12
9 °FFrigid.18 mph90%29.68 "HgN/A
4:00 AM9 °FFrigid.20 mph85%29.69 "HgN/A
3:00 AM9 °FFrigid.21 mph86%29.69 "HgN/A
2:00 AM8 °FFrigid.18 mph88%29.70 "HgN/A
1:00 AM8 °FFrigid.20 mph83%29.72 "HgN/A
12:00 AM8 °FFrigid.23 mph84%29.72 "HgN/A
5:00 PM
Thu, Feb 11
6 °FFrigid.20 mph89%29.77 "HgN/A
4:00 PM6 °FFrigid.21 mph86%29.78 "HgN/A
3:00 PM6 °FFrigid.23 mph86%29.78 "HgN/A
2:00 PM7 °FFrigid.23 mph85%29.78 "HgN/A
1:00 PM6 °FFrigid.25 mph77%29.80 "HgN/A
12:00 PM7 °FFrigid.23 mph79%29.81 "HgN/A
11:00 AM6 °FFrigid.23 mph79%29.82 "HgN/A
10:00 AM5 °FFrigid.22 mph84%29.83 "HgN/A
9:00 AM5 °FFrigid.21 mph83%29.84 "HgN/A
8:00 AM5 °FFrigid.21 mph86%29.85 "HgN/A
7:00 AM4 °FFrigid.16 mph88%29.86 "HgN/A
Weather by CustomWeather, © 2016

See weather overviewHow to use our weather pages